Wind_Speed
31 33 31 26 22 22 22 23 22 20 20 22 24 21 15 12 12 14 17 24 22 18 23 25 19 17 19 16 18 21 17 15 15 12 11 8 6 6 6 6 7 8 10 10 10 11 12 12 12 12 11 11 11 11 11 11 11 10 10 9 9 8 8 7 6 5 4 4 3 3 4 4 4 4 4 3 2 1 1 1 2 3 4 5 6 8
31 33 30 25 23 22 22 23 23 22 22 24 26 24 19 16 11 9 13 21 22 19 20 24 22 18 18 17 17 20 17 13 12 12 12 10 7 6 6 7 8 8 9 9 10 11 12 12 12 12 12 12 12 12 12 11 11 10 10 9 9 9 8 7 7 6 5 4 4 3 4 4 4 4 4 3 2 1 1 1 3 4 6 7 9 10
27 26 26 26 25 25 25 24 25 25 26 27 26 26 24 21 16 13 16 21 23 23 22 22 22 19 19 19 17 19 18 14 14 14 14 13 9 7 8 8 9 9 9 10 11 12 12 12 12 12 12 12 12 12 11 11 10 10 11 10 10 10 9 8 8 7 6 5 4 4 4 4 4 4 4 4 3 2 2 3 4 6 8 10 11 12
21 19 22 27 28 28 28 26 27 28 29 29 28 27 26 22 20 18 18 23 24 26 27 23 21 22 21 21 18 19 19 16 16 16 15 15 11 9 10 10 9 9 9 11 12 12 12 13 13 12 12 12 11 11 10 11 11 11 11 10 10 10 9 9 8 8 7 6 6 6 5 5 5 5 4 4 3 2 3 5 6 8 9 10 12 13
18 17 21 27 29 30 30 29 29 29 29 29 28 28 26 23 24 23 18 21 25 27 30 26 24 26 23 21 19 18 20 19 18 18 17 16 13 11 12 11 10 10 10 11 12 12 12 12 13 13 13 12 11 11 11 11 11 10 10 9 9 9 9 9 9 8 8 8 7 7 7 6 6 5 5 4 4 4 5 6 7 9 10 11 12 13
18 18 22 26 29 31 32 32 30 29 28 28 29 29 27 25 26 27 20 16 23 26 29 27 27 28 24 22 20 18 21 22 21 20 19 17 15 14 13 12 11 10 10 11 11 12 13 13 13 13 12 12 12 12 12 12 11 9 9 9 9 9 10 10 9 9 9 9 9 8 8 8 7 6 5 5 5 5 6 8 8 9 10 11 13 13
20 19 22 26 28 31 34 34 32 30 29 29 28 28 30 28 27 29 25 17 22 26 29 29 27 27 27 23 20 20 22 23 23 23 21 19 17 15 14 13 13 12 12 11 11 12 13 12 12 12 12 12 13 13 12 11 10 9 9 9 10 9 9 9 9 9 9 9 9 9 9 8 8 7 6 6 6 7 7 9 9 10 11 12 13 13
19 20 23 25 28 30 33 35 33 32 32 29 25 27 31 30 28 29 28 22 22 25 30 34 30 27 29 26 22 24 24 24 24 24 22 20 19 16 16 16 14 14 14 13 12 13 13 12 12 13 13 13 13 12 11 11 11 11 11 11 10 9 9 9 9 9 9 10 10 10 9 9 9 8 7 7 7 8 9 9 11 11 12 12 12 12
19 21 22 24 26 29 30 33 33 33 34 29 24 27 30 30 30 30 29 26 24 25 29 35 33 29 29 28 27 30 29 27 25 23 22 21 20 19 19 18 16 16 15 14 14 14 14 13 14 14 14 14 13 12 12 12 13 13 12 11 11 10 9 9 9 9 10 10 9 9 9 10 10 9 8 8 9 10 10 10 12 13 13 12 12 12
22 21 22 24 26 26 27 30 33 35 35 30 26 28 30 31 32 32 30 28 28 29 32 34 36 34 32 31 33 34 30 25 23 23 23 22 23 22 21 20 19 19 18 16 16 15 14 14 14 14 15 14 13 13 14 14 15 15 13 12 11 11 11 10 10 10 10 10 10 10 10 10 10 9 9 9 10 10 11 11 12 13 13 12 11 11
24 22 24 26 26 25 26 29 31 34 35 31 29 30 31 32 32 32 31 30 34 37 36 34 36 37 37 36 36 34 26 21 22 26 26 25 25 23 21 22 21 21 21 19 17 16 15 15 15 14 14 14 14 13 14 15 16 16 15 14 13 13 12 12 11 11 10 10 10 11 11 11 11 10 10 10 11 11 11 11 12 13 12 11 11 10
25 26 27 26 26 27 27 29 30 31 33 33 32 31 31 33 33 34 34 33 39 43 40 35 33 33 36 39 38 32 26 24 26 27 26 27 27 24 21 23 23 22 22 20 18 17 17 17 16 15 14 15 15 14 15 17 17 18 18 17 16 14 14 13 12 12 11 11 11 12 12 12 11 12 12 12 11 11 12 12 12 12 12 11 11 10
27 26 25 26 27 28 29 31 30 29 31 34 36 35 34 35 36 39 40 38 41 42 38 37 33 31 35 35 36 34 31 30 29 26 26 28 29 27 23 23 23 22 21 21 20 19 19 18 17 17 16 15 15 15 16 18 19 19 19 19 17 16 15 14 13 13 12 12 13 13 13 13 13 13 13 13 12 12 13 13 12 12 12 12 11 10
31 27 27 29 28 28 30 30 30 31 31 34 37 39 38 39 40 43 43 43 43 40 36 36 36 39 41 37 36 39 37 32 30 26 25 27 29 28 25 24 21 19 21 23 22 20 18 18 18 18 16 15 15 16 16 17 19 19 20 20 19 17 16 15 15 14 14 14 14 15 15 14 14 14 15 14 14 14 14 13 12 12 11 11 11 11
34 32 29 28 27 26 27 27 28 30 33 34 35 39 41 41 42 43 43 44 44 41 37 38 40 41 42 39 35 35 35 32 30 29 28 27 27 28 28 26 22 20 22 24 22 19 17 17 18 18 16 15 15 16 16 17 19 19 20 21 21 19 17 16 17 16 16 16 16 17 17 16 16 16 16 16 15 15 15 13 12 12 11 11 11 11
37 35 30 25 25 26 26 24 25 30 34 33 32 36 40 41 42 43 43 42 42 42 41 40 40 35 32 32 28 27 30 28 28 31 32 29 26 26 26 25 23 22 22 21 18 16 17 17 19 18 18 17 17 17 17 18 19 20 21 23 23 21 19 18 18 18 18 18 18 18 18 18 17 17 17 17 17 16 15 12 11 12 12 11 11 11
38 36 31 28 27 29 29 25 24 29 33 32 32 34 33 36 41 42 42 40 39 43 45 43 42 33 26 30 28 25 29 29 29 34 32 29 27 26 24 22 22 23 21 19 16 15 17 19 19 19 19 20 18 16 17 19 21 22 22 23 22 20 18 18 18 19 19 19 19 19 19 19 18 18 18 17 17 16 14 12 11 11 11 11 11 10
37 36 34 33 32 31 30 28 28 30 31 32 33 31 29 35 42 43 43 40 39 43 44 43 44 36 33 37 30 23 27 29 30 33 29 27 27 26 25 21 19 19 19 18 18 17 18 20 21 21 21 20 18 17 18 20 21 21 21 21 20 19 18 18 18 19 19 18 18 18 18 18 18 17 16 16 15 13 12 11 11 10 10 11 11 10
36 38 37 36 36 33 31 32 34 34 32 32 31 30 31 35 39 43 46 44 42 44 42 39 40 38 39 39 26 18 22 24 25 27 27 28 29 27 26 24 19 18 18 17 17 16 17 19 21 21 20 20 19 19 19 20 20 18 18 18 18 18 18 17 17 17 16 15 15 16 16 15 15 14 13 13 11 10 9 10 9 9 9 9 10 11
37 39 39 36 34 34 35 38 40 39 34 30 30 32 34 34 34 38 43 46 46 46 43 39 40 42 42 38 28 21 22 24 25 27 28 29 30 29 27 23 21 20 18 17 17 17 17 19 20 20 19 19 20 21 21 20 19 17 16 16 15 15 15 14 13 13 13 13 13 13 13 13 12 11 10 9 8 8 8 8 8 8 8 8 10 12
38 41 40 36 32 33 40 44 43 39 36 33 32 35 38 37 36 35 37 43 45 45 46 43 43 46 41 32 27 25 27 29 28 28 30 31 32 32 29 21 19 19 18 18 19 18 17 19 20 20 20 21 22 23 22 21 19 17 16 14 13 12 11 11 11 10 10 10 10 11 11 12 11 9 9 8 8 8 7 7 8 7 7 8 10 11
40 42 42 39 37 37 39 41 40 37 36 35 33 34 36 39 39 38 38 41 42 43 46 45 46 49 43 31 24 24 28 30 30 28 30 31 32 33 31 26 22 22 21 22 23 19 18 19 20 20 22 23 23 23 22 21 19 17 15 13 12 11 9 9 9 8 8 8 8 9 11 11 10 10 9 8 8 8 7 7 8 7 7 8 9 9
40 41 43 42 41 40 35 32 37 38 36 36 36 32 31 37 41 42 41 41 41 42 42 44 49 51 45 33 24 21 26 30 31 30 30 31 31 32 33 33 31 27 25 26 25 21 19 20 20 20 23 26 24 22 22 21 19 17 14 13 11 9 8 7 7 7 7 7 7 9 10 11 11 11 10 9 9 8 7 7 7 7 8 8 8 9
41 41 43 44 41 40 36 30 31 36 37 39 40 36 32 35 40 42 41 38 38 41 39 41 48 50 45 34 23 19 25 30 31 32 33 33 33 32 33 36 34 31 29 29 28 25 24 22 22 21 23 27 27 24 22 21 20 18 15 13 12 9 8 7 6 6 6 6 8 9 9 11 12 11 11 10 9 9 8 8 8 8 8 7 8 9
45 43 44 45 44 44 43 39 34 34 38 41 42 41 37 35 36 41 41 36 35 36 33 35 40 42 42 37 29 23 21 25 31 34 33 31 31 30 31 34 34 29 28 30 28 26 25 25 25 22 22 26 28 26 22 21 21 20 17 14 12 11 10 10 8 6 6 6 7 8 9 10 11 11 11 11 11 10 9 9 9 8 8 7 8 9
44 46 45 48 51 51 50 49 46 40 38 41 43 42 39 35 35 39 43 43 42 38 32 33 37 36 36 36 32 31 24 20 25 29 28 27 29 30 28 29 28 23 23 25 23 23 25 27 26 23 21 23 27 27 25 24 23 21 19 17 15 13 13 13 11 9 7 7 7 8 10 11 11 12 12 12 12 11 10 9 9 9 9 8 9 11
42 46 48 50 52 53 50 49 47 41 39 41 45 45 41 37 34 36 42 46 46 43 39 37 38 34 32 31 27 31 34 25 21 25 28 29 28 28 25 23 22 21 21 22 22 22 24 26 25 23 22 23 26 27 28 27 25 24 21 20 18 17 15 15 14 12 10 9 8 9 11 12 13 14 13 13 13 12 10 9 9 9 10 11 11 10
42 47 51 52 50 49 48 46 45 43 40 41 44 44 43 40 35 35 41 42 43 46 46 42 37 31 28 26 21 22 32 33 27 25 28 27 24 25 26 23 22 23 23 22 22 23 24 26 27 28 27 27 27 28 29 28 27 26 24 22 21 20 18 17 16 14 13 12 10 9 11 13 14 14 14 13 13 11 10 9 10 10 11 12 11 10
45 48 49 50 48 46 46 46 45 43 38 36 41 43 43 42 38 37 38 37 39 46 47 44 40 33 28 28 24 19 24 31 32 29 30 30 28 30 32 28 24 24 24 24 24 26 28 29 31 32 32 31 30 29 29 29 28 27 26 24 23 22 21 20 18 16 15 14 12 11 12 14 15 15 14 13 12 11 11 11 11 11 10 10 11 12
50 51 48 45 44 45 46 47 47 45 41 35 35 37 38 40 39 39 37 34 35 39 41 44 47 42 35 32 31 27 25 28 32 34 35 34 32 33 33 31 27 24 24 26 28 30 33 34 35 36 35 34 34 32 29 27 27 27 26 25 24 23 22 21 20 17 16 15 14 14 15 15 16 15 14 13 13 13 13 13 13 11 10 10 13 15
53 54 52 47 41 40 41 44 47 49 47 41 32 31 33 35 36 36 33 32 34 34 33 38 46 49 46 39 34 33 33 33 35 37 37 35 32 31 30 30 30 30 30 31 35 38 39 39 40 39 38 37 36 34 31 27 27 28 28 27 25 25 24 23 21 19 17 16 16 18 17 16 17 17 15 14 15 15 15 14 13 11 11 12 15 17
54 56 55 53 47 39 36 39 44 48 49 47 42 37 34 31 29 29 27 26 30 33 32 34 40 45 47 45 41 38 39 39 36 36 40 40 38 38 36 32 32 35 37 40 43 44 43 41 42 42 40 38 36 35 33 31 30 29 29 28 27 27 27 25 23 21 19 17 19 20 19 17 18 18 17 16 17 17 16 15 13 13 14 15 16 18
53 57 58 59 56 47 40 38 37 37 46 54 53 47 41 34 28 26 28 28 27 27 31 33 35 36 35 39 45 45 45 44 39 36 40 41 40 43 43 40 37 37 39 43 46 47 44 42 42 43 43 40 39 38 36 34 33 32 30 30 30 30 30 28 26 24 21 20 21 21 20 18 19 20 19 18 18 18 17 16 15 15 16 17 18 20
49 53 57 61 61 54 47 44 37 34 43 54 55 49 45 43 38 34 33 32 27 24 25 27 29 30 30 34 40 44 47 47 43 41 42 40 38 42 45 45 43 41 43 45 47 48 46 45 46 47 46 45 42 41 41 39 36 35 34 34 33 32 31 31 29 27 25 23 22 22 20 19 19 21 21 21 20 19 19 19 19 19 19 20 21 22
49 51 56 61 62 58 53 49 43 41 44 46 46 47 48 46 42 42 42 39 34 27 25 26 28 31 34 38 41 42 43 44 43 45 47 45 41 40 41 42 41 40 43 46 45 45 46 46 48 48 47 45 43 43 44 42 39 39 39 37 36 34 32 32 32 30 28 26 24 23 21 20 20 21 22 23 22 22 22 22 23 23 23 24 24 25
44 49 55 62 64 60 57 54 51 48 45 42 41 45 48 48 45 45 45 43 40 36 32 31 32 33 35 39 41 42 42 42 42 45 51 55 53 46 42 41 40 38 40 44 44 44 44 43 45 46 46 45 43 43 44 42 41 41 42 40 38 36 34 33 33 32 30 29 27 24 21 20 20 21 22 23 23 23 23 23 24 25 25 26 27 28
43 46 50 59 66 64 59 57 57 55 49 45 44 43 45 49 50 49 47 44 43 43 41 40 40 39 38 37 37 39 41 42 42 42 45 52 55 54 50 48 46 42 41 43 43 43 43 42 41 42 44 43 43 42 42 43 44 44 45 43 40 38 37 36 35 34 32 31 29 26 23 21 20 21 21 21 22 22 22 23 24 25 26 27 29 31
46 45 42 45 55 61 60 58 59 60 57 53 49 45 44 46 48 50 51 49 47 47 47 47 46 42 39 37 37 38 40 40 39 38 40 45 50 53 55 55 54 49 45 45 45 43 43 43 44 45 45 45 44 42 40 42 45 46 45 45 43 42 41 39 37 36 35 33 31 28 26 24 23 22 22 21 20 20 22 24 25 26 27 28 31 34
44 41 37 35 39 47 54 59 62 62 61 57 52 48 47 46 45 45 47 49 51 51 50 49 48 45 42 41 41 42 42 41 40 38 38 41 45 48 51 54 56 55 53 51 51 49 48 47 49 52 53 50 46 43 42 43 45 45 44 44 45 45 44 42 41 39 38 36 34 31 29 26 25 24 22 21 21 22 25 26 27 28 29 31 34 36
43 37 35 35 38 41 45 53 60 59 58 57 53 49 49 51 49 46 44 46 49 50 52 52 50 48 46 45 45 47 47 46 45 43 41 40 40 40 42 45 49 52 56 58 58 56 53 52 54 58 59 57 51 48 47 45 43 42 43 44 47 48 47 46 44 42 41 39 35 33 31 28 26 25 23 23 25 27 28 29 29 30 33 35 38 40
46 37 35 37 42 44 42 44 50 52 54 55 52 48 49 53 53 49 48 50 49 47 49 51 52 50 48 47 47 49 50 50 49 48 47 45 43 39 37 40 41 41 47 56 63 64 61 58 60 62 62 61 58 55 54 53 51 51 50 50 49 49 49 49 47 45 44 42 37 34 32 30 29 26 25 27 29 31 31 31 32 34 36 38 40 43
49 42 41 42 44 45 42 41 43 46 50 51 48 46 47 48 49 49 50 52 52 50 48 47 48 49 50 49 49 47 48 50 51 51 50 49 45 42 40 41 41 39 39 43 53 64 68 64 62 64 64 64 64 63 63 62 62 60 57 57 55 52 51 51 49 47 46 44 40 36 33 32 30 28 28 31 32 33 33 34 35 36 37 39 42 45
55 48 43 45 48 45 43 44 45 45 47 47 46 47 47 46 47 49 50 50 51 51 50 46 45 46 47 48 49 47 47 49 52 53 52 49 46 45 45 45 44 43 42 40 40 49 62 67 65 64 66 67 66 67 67 66 65 63 59 58 57 55 54 53 51 49 49 47 43 38 35 34 32 31 32 33 33 34 35 35 35 36 39 41 43 46
58 52 46 46 50 49 47 49 49 45 44 44 44 45 47 49 52 53 52 52 52 51 49 45 44 44 43 42 43 45 46 49 52 54 54 51 48 48 50 51 50 48 47 45 40 40 51 65 71 71 72 72 70 70 70 68 65 63 61 57 56 56 56 54 52 51 50 50 46 40 37 35 34 34 34 34 33 34 35 36 36 38 40 42 45 49
64 58 52 50 53 55 53 52 51 46 42 42 44 46 48 50 53 55 53 51 51 51 48 46 44 45 44 43 43 44 45 45 48 52 54 53 51 50 51 54 56 54 51 50 47 43 44 55 66 70 72 73 70 68 67 65 62 60 57 54 53 55 55 55 54 52 51 51 47 41 38 37 36 36 37 35 34 36 36 37 39 40 42 45 49 50
74 68 61 56 56 58 58 55 52 49 46 44 44 46 49 51 51 53 51 47 45 45 45 44 43 43 45 45 45 46 45 44 44 47 51 52 52 52 53 55 58 60 57 55 53 49 46 48 55 59 62 64 63 60 59 59 58 58 57 54 51 53 54 53 52 53 52 51 46 41 39 38 38 39 38 36 35 37 37 38 41 42 44 48 49 46
73 74 70 64 60 59 60 57 55 53 52 53 51 48 47 49 51 50 47 44 42 41 41 42 42 42 44 45 45 45 45 44 42 43 47 50 52 52 53 54 57 60 63 62 58 53 51 51 53 55 55 56 59 60 55 50 50 52 56 57 55 53 52 50 50 52 51 48 44 41 41 40 40 39 38 36 36 37 39 40 42 44 46 48 46 44
63 69 70 67 65 63 61 57 56 55 53 54 57 57 53 50 50 48 44 41 40 39 39 41 43 43 43 44 44 44 43 43 44 45 46 49 51 51 52 53 53 55 59 62 59 55 52 52 54 56 53 52 57 62 56 50 49 48 49 55 59 57 51 48 49 50 48 46 45 44 43 42 41 39 37 37 38 39 41 43 44 46 47 46 44 44
55 60 62 63 64 67 64 57 54 56 56 52 52 56 56 54 51 47 43 40 40 40 39 40 42 43 42 42 43 43 43 43 44 46 48 50 51 52 52 52 52 51 52 55 56 55 54 53 54 56 54 51 55 59 57 55 53 48 45 49 56 57 51 49 50 49 49 47 46 45 44 42 40 38 38 39 40 42 44 45 46 48 47 43 42 44
52 53 57 58 59 62 64 61 57 57 60 58 55 54 57 56 52 46 43 41 39 38 37 38 39 41 41 41 42 42 42 42 43 43 45 47 49 51 51 51 50 48 46 47 49 51 53 54 55 56 55 54 55 58 59 57 53 48 43 42 49 51 49 48 47 46 47 47 45 44 42 40 39 39 40 42 43 45 45 47 49 48 44 40 41 44
55 52 52 54 55 55 57 60 61 60 57 55 55 58 59 58 53 47 42 40 38 37 37 37 37 38 38 39 40 41 42 42 43 43 43 43 45 48 49 49 48 46 44 45 46 47 49 52 55 57 58 56 54 55 56 55 50 45 39 38 41 44 43 39 37 39 42 44 44 43 41 39 39 41 43 44 46 46 47 48 49 47 41 40 42 44
Wind_Direction
236 236 235 234 236 238 239 241 239 233 229 227 230 228 209 197 185 172 208 243 257 256 253 261 268 262 258 250 248 262 268 259 259 260 257 249 230 238 251 248 240 231 224 215 205 200 197 191 187 186 186 187 188 188 187 187 187 186 185 187 190 194 198 201 203 202 201 199 194 179 172 168 159 149 140 134 128 113 73 23 7 3 356 348 343 342
238 240 238 235 234 235 236 238 236 228 225 226 229 224 203 187 192 201 231 253 268 270 263 265 267 261 257 252 252 259 256 252 260 264 263 256 231 223 242 246 242 237 230 218 208 206 202 196 193 196 196 195 196 198 198 196 196 195 194 196 199 205 209 210 212 215 214 214 212 200 191 186 175 161 152 153 154 164 278 329 341 339 335 333 333 332
244 246 241 234 230 231 231 231 232 227 222 224 227 224 211 190 189 219 244 258 271 277 273 268 265 265 260 252 253 255 250 251 264 268 263 254 238 223 232 238 237 238 232 223 215 208 204 201 200 202 204 205 205 206 206 205 204 204 205 204 206 213 217 218 219 223 224 225 223 216 207 200 191 177 174 179 184 213 276 311 323 325 327 329 329 327
252 252 242 234 228 228 229 228 229 227 223 222 220 222 219 194 177 193 226 249 261 271 273 267 266 272 264 249 243 245 249 255 262 266 261 250 241 229 229 227 223 228 229 227 223 215 209 206 205 207 210 212 212 212 211 211 210 211 215 214 213 218 223 225 225 226 227 230 229 224 218 213 208 202 199 205 218 252 284 305 315 320 325 328 329 327
254 246 239 235 229 227 229 227 227 227 226 222 216 217 216 196 176 175 201 244 253 258 262 259 262 267 259 245 242 240 247 255 256 256 255 252 245 234 233 228 220 220 224 226 227 222 216 214 211 211 214 214 214 216 216 218 218 219 224 226 223 223 226 229 230 228 227 231 232 230 227 226 226 225 224 232 249 272 287 299 311 319 323 328 330 330
252 242 235 234 231 227 228 228 227 228 228 223 217 216 213 201 186 175 180 229 246 250 256 253 255 261 256 249 253 253 251 253 253 251 251 253 247 240 237 232 226 224 222 224 229 228 223 222 223 222 221 220 218 220 221 220 221 222 226 230 228 227 227 231 234 232 230 233 235 235 234 234 238 242 244 251 266 280 289 298 307 315 319 324 328 331
248 243 238 236 233 229 228 228 227 227 228 225 218 217 217 213 203 185 176 205 241 256 264 259 256 259 258 255 261 269 262 254 252 250 249 250 247 243 240 234 228 227 225 224 227 234 232 226 228 231 230 228 226 226 227 225 223 221 222 226 228 228 229 234 237 236 236 237 238 238 240 243 245 251 256 264 276 285 291 298 306 312 315 320 326 332
248 245 244 240 236 233 231 231 227 224 228 227 219 219 219 219 217 198 179 189 229 253 262 263 262 257 256 259 269 281 273 253 244 241 240 243 244 244 243 238 231 227 226 224 224 231 236 234 232 233 233 234 237 239 238 236 231 224 220 222 226 228 229 234 239 240 241 242 243 244 245 249 254 260 265 272 282 288 293 300 306 311 314 318 324 331
248 244 247 246 242 239 236 234 230 226 228 225 218 220 220 220 220 205 184 184 209 232 246 257 262 255 252 257 267 281 276 255 244 240 239 240 241 243 244 242 237 234 229 225 225 227 231 236 237 238 240 241 242 246 247 246 243 237 230 225 226 228 229 230 235 239 242 245 247 248 249 252 258 265 270 275 282 288 294 300 304 308 312 315 320 327
247 244 245 248 245 242 239 235 230 228 229 224 218 221 221 220 215 203 194 190 200 221 237 249 257 259 261 262 267 275 269 256 258 261 257 251 243 239 240 242 240 239 236 229 228 229 231 236 240 244 251 254 252 252 252 252 251 249 241 232 227 228 228 229 232 237 242 246 248 248 249 252 259 265 269 274 280 286 292 297 301 304 308 310 313 320
251 246 241 245 246 242 239 236 232 229 229 224 218 219 220 220 213 207 209 205 206 216 224 237 254 263 266 266 268 269 258 255 276 276 266 257 252 246 241 242 242 241 241 236 231 234 237 239 241 247 257 262 262 260 259 257 254 253 248 240 231 229 231 231 233 238 242 246 247 248 250 253 258 263 266 271 277 284 290 295 298 302 304 304 305 308
255 251 246 244 246 244 240 239 236 229 226 223 219 218 218 216 213 211 216 219 221 219 214 221 241 257 261 262 267 268 257 261 275 273 263 255 252 251 245 243 244 243 242 238 230 232 237 238 239 244 252 258 259 260 261 259 256 255 252 246 239 233 232 232 233 237 240 243 247 248 250 254 257 261 264 268 273 280 288 294 297 298 298 297 296 297
255 253 251 246 243 243 242 241 239 233 226 221 218 216 215 214 214 214 215 219 227 228 218 213 223 240 250 256 262 264 263 268 273 270 265 257 250 248 243 241 243 242 242 239 233 231 235 238 240 239 242 248 252 252 253 256 258 258 256 252 248 242 237 235 235 235 237 240 245 249 251 254 256 259 261 265 269 276 285 293 295 294 292 289 289 291
248 244 240 240 240 239 241 242 241 238 232 224 218 216 216 214 216 218 218 219 224 228 224 217 223 235 239 241 249 254 258 266 271 271 266 256 249 247 245 243 244 240 239 239 237 236 237 240 242 239 237 240 246 246 246 251 255 256 256 254 250 248 246 243 240 237 238 239 243 248 252 255 257 258 260 262 266 273 283 291 293 290 286 284 285 288
247 242 237 239 243 243 243 243 242 240 238 236 228 221 221 220 220 223 224 224 225 226 225 225 232 237 237 239 246 250 253 261 270 275 270 259 248 244 244 245 242 236 236 238 239 238 238 238 238 236 233 232 237 243 246 249 252 250 248 249 247 246 245 244 243 241 240 241 243 248 252 255 257 258 259 261 265 272 282 288 287 284 282 280 281 287
249 247 241 239 243 246 245 242 240 239 240 244 237 227 228 229 227 228 228 229 228 225 225 227 233 238 244 250 252 249 250 259 268 271 270 264 252 243 242 241 236 235 239 242 240 239 239 237 234 233 235 236 238 244 247 247 246 243 239 240 242 243 242 242 244 245 245 246 247 250 254 256 256 257 259 262 265 272 280 281 277 277 278 277 279 285
250 250 245 241 239 242 245 242 237 240 244 244 239 237 239 235 228 227 228 230 228 227 229 228 229 232 238 246 247 244 244 248 255 260 266 270 263 253 246 236 232 238 243 244 240 236 234 229 229 234 240 245 244 243 244 242 240 239 236 236 238 240 243 243 244 246 247 249 250 252 255 256 256 256 259 263 268 273 276 272 268 269 272 276 280 283
248 250 247 245 242 240 243 245 240 239 243 243 241 244 242 232 226 224 225 227 227 230 233 232 231 230 226 233 243 247 244 243 246 255 267 280 278 266 254 242 237 240 242 240 236 233 229 224 225 234 242 247 247 241 238 238 238 237 235 234 234 234 236 238 240 244 247 250 252 253 255 256 256 257 261 267 271 271 265 261 261 264 269 276 281 286
242 246 245 243 245 241 237 242 243 238 235 238 241 242 237 231 229 225 222 225 227 231 233 231 234 232 223 225 236 249 251 250 254 263 274 283 284 276 263 251 245 246 244 238 238 240 238 230 227 235 244 247 246 242 238 238 237 235 232 229 228 227 230 234 239 243 248 249 250 251 252 254 257 261 264 266 265 257 249 252 258 262 266 273 282 292
238 241 242 241 244 245 239 238 241 240 234 230 230 233 233 234 235 231 227 228 229 231 232 229 232 235 230 227 229 237 248 255 260 268 275 279 280 280 274 258 241 242 245 242 243 244 236 227 226 235 245 249 248 244 240 239 237 231 226 223 222 222 225 230 236 239 243 243 243 246 250 253 257 258 256 256 251 242 240 249 256 257 260 272 287 298
237 238 239 235 234 240 245 244 242 241 238 230 227 232 235 234 232 231 232 233 233 234 234 232 235 239 237 230 228 227 234 246 256 263 270 275 277 280 280 265 237 236 245 242 239 233 220 217 223 234 242 246 250 250 245 243 240 232 224 220 217 218 219 223 228 233 237 238 239 242 245 248 249 248 248 247 242 237 236 242 248 252 262 277 291 299
230 236 237 231 227 233 242 250 250 246 241 237 233 235 243 243 234 227 229 234 237 238 237 235 238 243 239 226 223 223 223 236 252 260 266 271 274 276 277 270 252 245 243 234 228 224 215 214 219 230 240 245 250 254 251 248 243 234 224 217 214 212 211 218 225 230 238 239 238 240 241 243 242 244 248 244 237 234 232 236 245 256 272 285 292 295
228 231 238 235 230 231 233 244 255 254 247 241 235 231 238 243 239 234 234 235 236 238 238 235 236 243 241 227 222 226 221 228 244 254 259 263 266 269 272 272 266 257 244 226 219 222 222 218 218 224 238 245 247 251 252 250 246 237 223 216 216 212 206 215 227 234 240 241 242 242 241 241 242 244 246 239 232 233 234 239 251 263 274 283 289 292
234 226 232 237 233 229 226 230 246 256 254 246 238 230 225 232 238 239 237 233 234 240 242 238 237 242 242 226 210 216 223 227 238 246 251 256 261 265 268 271 271 267 251 226 214 220 225 226 227 228 234 240 243 247 252 252 248 241 230 221 217 216 217 223 231 243 249 243 241 243 241 241 240 239 238 234 231 234 239 248 256 264 272 277 285 292
242 231 224 230 232 225 219 217 223 238 246 247 243 235 226 226 230 233 232 228 232 240 243 242 243 247 247 233 209 202 222 234 236 241 247 250 255 260 264 267 267 261 246 229 219 224 231 235 237 233 230 234 238 242 246 248 247 244 240 232 222 222 230 233 231 242 259 255 243 238 236 236 235 232 231 232 234 237 244 251 256 261 264 268 281 294
241 242 231 226 229 227 222 219 218 222 232 243 247 242 235 229 226 227 229 228 232 237 236 237 241 245 250 246 223 202 209 235 240 240 246 248 254 261 259 257 256 245 229 225 226 231 237 241 242 238 232 230 232 236 239 243 246 243 239 237 233 229 232 237 237 239 254 263 254 240 235 234 232 229 229 232 238 243 245 249 254 255 259 267 281 292
230 239 239 232 230 232 232 227 222 221 227 238 247 250 245 237 233 230 227 230 237 236 232 235 239 239 244 253 243 214 206 218 235 238 244 248 254 258 252 247 249 239 222 221 227 232 238 244 246 246 244 235 231 235 238 241 243 240 235 234 237 237 237 240 241 240 248 260 260 249 240 235 232 231 232 235 240 245 244 242 245 253 266 277 286 292
226 231 238 237 232 231 233 231 223 217 223 234 242 250 251 244 241 237 232 235 237 231 233 239 238 236 236 237 243 228 211 214 225 233 240 243 242 247 250 250 249 240 227 224 230 237 241 244 248 250 251 246 240 239 240 240 240 238 233 230 232 236 240 244 245 243 247 256 261 258 248 240 236 235 238 238 239 242 241 236 240 254 270 280 289 295
223 226 233 239 237 230 228 229 224 213 213 228 238 243 248 248 244 241 241 242 234 228 236 242 233 231 230 217 213 217 214 217 224 229 233 232 233 244 250 248 244 241 235 229 232 237 239 241 245 248 251 252 249 246 242 239 238 239 239 237 234 233 236 241 244 243 244 251 259 263 257 247 240 238 239 239 238 238 238 238 243 251 260 273 288 300
218 220 225 233 238 235 227 223 222 213 205 215 232 238 242 246 247 245 243 243 239 235 238 236 227 227 228 215 202 200 206 213 219 226 232 234 237 243 242 237 234 236 236 233 231 233 235 239 243 245 247 249 251 251 246 239 238 241 244 243 241 239 237 237 239 239 241 247 256 262 260 251 244 239 237 236 237 237 238 242 246 245 249 269 290 300
217 217 218 222 229 234 231 221 217 215 209 204 213 228 237 243 247 248 246 241 237 236 237 234 229 227 228 221 207 198 201 206 210 217 224 229 232 232 228 229 229 228 229 229 229 230 235 240 242 242 243 245 249 252 249 243 240 241 243 247 249 249 245 240 237 237 239 243 251 258 258 252 247 240 232 231 236 239 240 243 246 248 258 277 290 295
219 219 216 218 219 219 223 221 217 218 214 206 204 212 223 235 244 253 259 254 241 232 230 235 236 233 229 226 219 209 203 201 203 213 219 222 227 227 223 222 223 224 227 229 230 234 240 245 245 244 246 247 249 250 249 248 246 244 246 253 256 255 253 248 241 237 237 238 244 253 256 251 245 238 229 228 234 241 244 245 250 260 271 281 287 291
213 220 217 217 217 213 210 213 217 220 218 216 214 209 207 213 223 238 253 259 255 239 228 233 245 245 236 229 228 226 218 207 199 204 214 220 227 230 225 221 220 221 226 231 234 237 242 246 248 249 250 249 249 250 251 251 252 251 252 254 255 255 257 256 249 241 237 234 238 249 253 248 241 236 231 229 234 241 246 248 256 267 275 280 285 291
206 218 218 216 217 215 208 205 206 211 218 223 221 214 210 210 207 211 225 234 240 245 240 243 252 250 236 228 229 231 230 224 213 204 206 214 224 230 228 228 228 226 227 233 237 240 242 244 245 248 249 248 247 248 250 252 253 253 254 254 255 256 258 258 255 249 243 236 236 244 248 244 239 235 232 231 235 242 248 252 259 267 274 280 286 292
203 215 217 215 216 216 212 204 199 203 213 220 219 215 217 219 212 209 216 219 220 228 237 244 250 246 232 225 228 232 233 233 226 216 211 213 221 226 226 228 229 229 231 235 237 238 239 240 241 243 245 248 249 246 248 251 253 253 254 255 256 257 257 256 255 253 249 243 239 240 242 242 237 234 234 234 238 245 251 255 260 266 274 281 288 293
200 212 215 214 214 217 214 206 204 209 212 215 217 216 217 219 218 217 219 218 215 215 217 223 233 240 234 225 228 234 236 236 233 226 221 220 221 221 221 222 223 224 231 238 242 242 240 239 240 240 242 247 250 247 246 249 251 251 252 254 255 255 255 254 252 252 251 249 244 238 237 237 233 231 233 237 241 247 253 258 263 269 277 284 290 295
192 206 215 215 214 216 215 211 212 216 216 216 222 222 220 220 220 220 219 217 213 210 211 216 224 234 237 233 231 234 239 242 240 234 230 227 225 224 223 222 220 221 225 232 239 245 245 242 239 239 239 241 245 246 246 247 248 249 249 251 252 252 253 252 250 250 251 251 246 237 232 232 231 231 234 239 244 250 257 264 269 275 282 288 292 294
192 199 211 218 217 217 216 215 216 219 220 222 224 223 221 221 220 221 221 217 213 211 212 217 223 229 234 235 235 236 240 244 245 242 236 233 231 231 231 227 223 221 223 228 231 235 240 240 239 240 239 237 237 240 241 241 243 246 248 249 250 249 249 249 248 248 250 251 246 238 232 231 233 237 241 245 251 257 264 269 274 279 285 289 291 292
192 195 201 210 216 217 216 216 218 221 223 225 224 222 220 220 222 224 223 221 219 217 215 217 221 224 227 230 234 236 239 242 244 243 238 233 232 234 235 234 230 224 223 228 231 231 234 236 238 241 242 238 235 235 236 237 239 243 246 248 248 247 246 246 246 247 248 249 247 241 235 233 236 240 245 251 257 262 266 270 275 281 285 287 288 288
189 193 197 203 209 212 213 215 218 223 227 228 227 225 223 223 226 227 225 226 227 224 219 220 224 227 228 230 232 232 235 239 241 241 240 238 239 238 237 238 237 231 225 227 231 232 230 231 237 243 245 243 238 234 234 235 237 243 248 247 245 247 246 245 245 245 246 247 244 240 237 236 238 243 248 255 260 262 266 272 277 283 286 287 287 288
192 194 197 201 206 208 209 212 216 220 225 228 227 226 225 226 228 229 229 232 234 231 226 226 230 233 234 234 233 232 233 236 239 240 240 241 244 245 241 240 243 240 233 229 230 232 230 231 237 243 246 246 243 239 238 238 238 245 250 246 243 245 246 245 244 243 244 244 240 236 237 238 240 245 250 256 260 263 269 276 280 283 286 288 288 290
201 202 199 198 203 205 205 209 213 217 222 225 225 226 226 225 227 230 232 234 235 235 234 231 231 233 235 236 236 234 234 237 240 241 241 241 241 241 241 242 243 244 244 238 234 232 231 231 235 239 242 246 247 246 247 245 242 244 245 241 239 242 244 244 243 242 241 241 238 235 236 239 242 246 251 256 261 267 272 276 279 282 285 286 286 287
207 206 200 198 203 204 203 207 211 216 222 224 224 226 227 225 226 228 231 233 235 236 236 234 232 232 234 235 235 235 235 237 239 240 240 239 237 236 239 241 240 240 245 246 243 239 234 230 230 232 236 240 245 247 249 248 246 246 245 240 236 236 238 241 242 241 239 239 238 235 235 239 243 247 252 257 262 267 271 274 278 281 283 284 284 284
205 205 202 200 203 203 202 206 211 213 219 222 223 226 228 227 227 228 230 233 234 235 236 237 235 234 233 234 233 234 235 236 237 238 238 237 236 236 238 240 241 241 241 242 246 248 240 232 229 230 233 237 240 243 245 246 247 247 245 240 233 230 233 238 239 239 238 238 237 234 234 239 243 246 251 256 261 266 269 272 276 279 280 283 282 281
207 207 206 203 205 205 204 207 210 211 213 218 220 221 223 225 228 229 231 234 236 237 238 239 237 235 235 236 235 235 237 238 237 237 238 238 237 237 239 240 242 243 242 241 243 246 243 237 235 235 237 238 240 244 246 244 241 240 239 236 230 226 227 233 236 236 237 236 235 232 234 239 242 245 249 254 258 262 266 270 273 276 278 279 279 281
211 211 211 208 208 209 210 212 215 215 216 218 219 219 220 222 226 228 229 231 235 237 238 239 238 237 236 236 237 238 239 240 240 238 238 238 239 240 242 242 242 244 244 244 243 244 244 243 242 243 244 244 245 249 250 245 238 235 234 232 227 223 223 227 231 233 233 233 233 233 235 237 240 243 248 253 257 262 267 270 273 275 277 279 283 289
211 212 213 211 211 212 214 215 219 221 222 224 226 227 228 229 230 230 229 229 232 234 234 235 236 237 237 236 236 238 239 240 241 240 239 239 241 244 246 246 246 246 245 245 245 245 244 244 245 247 250 251 247 246 247 246 244 242 239 233 225 218 218 223 227 230 230 229 229 232 234 237 240 244 249 253 259 264 268 270 273 275 277 280 286 292
210 211 212 211 211 213 215 218 221 222 223 228 231 232 234 235 236 235 231 230 233 235 234 233 234 236 237 238 237 238 239 240 241 241 242 242 244 247 250 251 250 249 248 246 246 248 248 246 246 246 250 254 250 245 247 250 247 246 247 239 224 213 213 219 224 226 226 225 225 229 233 237 241 245 249 254 259 263 266 268 271 273 275 279 284 288
209 211 212 211 211 214 217 221 225 224 222 227 231 230 231 235 239 239 235 232 234 236 235 234 235 236 237 239 239 239 239 240 241 243 245 247 249 250 253 255 255 253 251 249 250 251 251 249 248 247 249 254 253 249 251 251 248 250 254 241 221 211 210 215 218 220 222 224 226 230 234 238 242 245 249 253 256 260 263 266 268 269 271 277 283 286
212 212 211 210 211 215 217 221 227 228 225 227 231 230 230 232 234 234 233 231 232 236 235 233 235 237 238 240 239 239 240 241 243 246 248 249 250 251 253 256 257 256 255 253 252 253 253 252 252 251 249 250 250 249 249 248 250 255 254 235 218 212 211 211 211 214 219 225 229 232 235 238 241 243 246 249 253 257 261 264 266 267 270 277 283 285
212 210 209 209 211 214 217 221 227 228 226 228 233 234 232 232 231 230 232 232 233 236 236 233 234 236 238 240 240 240 242 243 245 248 251 252 253 253 253 256 258 258 258 256 254 253 254 253 254 254 251 248 247 247 247 248 252 253 243 225 215 212 210 207 207 212 219 225 229 231 235 238 240 242 245 248 252 256 259 262 264 266 269 276 281 285
Height
5869 5869 5871 5875 5879 5880 5882 5883 5885 5888 5890 5891 5892 5893 5896 5899 5901 5903 5906 5905 5905 5907 5905 5903 5904 5904 5903 5904 5904 5902 5904 5905 5904 5904 5904 5905 5906 5907 5908 5909 5909 5910 5911 5912 5913 5914 5916 5917 5918 5920 5921 5922 5922 5923 5923 5924 5924 5925 5926 5927 5928 5928 5929 5929 5930 5931 5931 5932 5932 5933 5933 5933 5934 5934 5935 5935 5935 5936 5936 5937 5937 5938 5938 5938 5939 5939
5865 5866 5871 5875 5877 5879 5880 5882 5883 5885 5888 5888 5889 5891 5892 5896 5899 5902 5904 5903 5902 5904 5905 5903 5902 5902 5901 5902 5903 5902 5903 5904 5903 5904 5904 5904 5905 5906 5907 5908 5909 5910 5911 5912 5913 5914 5916 5917 5918 5919 5920 5921 5922 5922 5923 5924 5924 5925 5926 5927 5927 5927 5928 5929 5929 5930 5931 5931 5932 5932 5933 5933 5934 5934 5935 5935 5935 5936 5936 5937 5937 5938 5938 5938 5938 5938
5863 5866 5870 5873 5874 5875 5876 5878 5880 5882 5884 5886 5887 5888 5889 5891 5895 5900 5904 5902 5900 5901 5902 5902 5901 5901 5900 5900 5901 5901 5901 5902 5902 5903 5904 5903 5904 5905 5906 5908 5909 5910 5911 5912 5912 5913 5915 5916 5917 5918 5919 5920 5921 5922 5923 5923 5924 5925 5925 5926 5926 5927 5927 5928 5929 5929 5930 5931 5931 5932 5932 5933 5933 5934 5934 5935 5935 5936 5936 5937 5937 5937 5937 5937 5937 5937
5862 5865 5868 5869 5870 5871 5873 5874 5876 5878 5880 5882 5884 5886 5888 5889 5891 5896 5902 5903 5900 5899 5899 5900 5901 5900 5899 5898 5899 5899 5899 5900 5901 5902 5903 5903 5903 5904 5905 5906 5908 5909 5910 5911 5912 5913 5914 5915 5916 5917 5918 5919 5920 5921 5922 5922 5923 5924 5924 5925 5926 5926 5927 5927 5928 5928 5929 5930 5930 5931 5932 5932 5933 5933 5934 5935 5935 5936 5936 5936 5937 5937 5937 5937 5937 5936
5861 5864 5864 5864 5866 5868 5869 5871 5872 5874 5877 5879 5882 5884 5887 5889 5889 5892 5899 5902 5902 5899 5897 5898 5899 5898 5897 5896 5897 5898 5898 5899 5900 5901 5902 5903 5903 5903 5904 5905 5906 5907 5909 5910 5911 5912 5914 5915 5916 5916 5917 5918 5919 5920 5921 5921 5922 5923 5923 5924 5925 5925 5926 5926 5927 5928 5928 5929 5930 5930 5931 5931 5932 5933 5934 5934 5935 5935 5935 5936 5936 5936 5936 5936 5936 5935
5859 5861 5861 5861 5862 5864 5866 5867 5869 5872 5874 5877 5879 5882 5885 5887 5888 5890 5895 5899 5900 5897 5895 5896 5896 5895 5895 5895 5896 5898 5898 5898 5899 5900 5900 5901 5902 5903 5904 5904 5905 5906 5907 5909 5910 5911 5913 5914 5915 5916 5917 5918 5919 5919 5920 5920 5921 5922 5922 5923 5924 5924 5925 5925 5926 5927 5927 5928 5929 5929 5930 5931 5931 5932 5933 5934 5934 5935 5935 5935 5935 5936 5935 5935 5935 5935
5856 5857 5858 5858 5859 5861 5862 5863 5866 5869 5871 5873 5877 5882 5884 5886 5887 5888 5890 5894 5896 5895 5893 5893 5894 5894 5893 5893 5894 5896 5896 5896 5897 5897 5898 5900 5900 5902 5904 5904 5904 5905 5906 5908 5910 5911 5912 5914 5915 5916 5917 5918 5919 5919 5920 5920 5920 5921 5921 5922 5922 5923 5924 5924 5925 5926 5926 5927 5928 5928 5929 5930 5930 5931 5932 5933 5933 5934 5934 5934 5934 5935 5934 5934 5934 5934
5854 5855 5855 5856 5856 5857 5858 5860 5863 5866 5866 5870 5876 5880 5881 5884 5886 5886 5886 5889 5893 5895 5893 5889 5891 5892 5890 5890 5892 5892 5893 5894 5894 5896 5897 5899 5899 5901 5903 5904 5905 5905 5905 5906 5908 5910 5911 5913 5914 5915 5916 5917 5918 5919 5920 5920 5920 5920 5921 5921 5921 5922 5923 5923 5924 5925 5925 5926 5927 5927 5928 5929 5929 5930 5931 5932 5932 5933 5933 5933 5933 5933 5933 5933 5933 5932
5850 5851 5852 5853 5854 5854 5856 5858 5861 5863 5863 5868 5874 5876 5878 5881 5884 5885 5884 5884 5888 5891 5890 5887 5887 5888 5888 5889 5890 5890 5890 5891 5892 5894 5896 5897 5898 5900 5901 5903 5904 5904 5904 5905 5906 5908 5910 5911 5913 5914 5915 5916 5917 5918 5919 5920 5920 5920 5920 5920 5920 5921 5922 5922 5923 5923 5924 5925 5925 5926 5927 5928 5928 5929 5930 5931 5931 5931 5932 5932 5932 5932 5932 5932 5931 5931
5846 5848 5850 5850 5851 5852 5854 5855 5858 5859 5860 5866 5871 5872 5875 5877 5880 5883 5881 5881 5884 5884 5885 5884 5883 5883 5885 5886 5888 5888 5888 5889 5890 5892 5893 5895 5896 5898 5899 5900 5902 5904 5904 5904 5904 5906 5907 5909 5911 5913 5914 5915 5916 5917 5917 5918 5919 5920 5920 5920 5920 5920 5920 5921 5922 5922 5923 5923 5924 5925 5926 5926 5927 5928 5929 5929 5930 5930 5931 5931 5931 5931 5931 5931 5930 5930
5843 5845 5846 5846 5848 5850 5851 5852 5854 5856 5858 5863 5867 5868 5871 5873 5876 5879 5878 5880 5879 5876 5878 5881 5881 5881 5881 5881 5883 5885 5886 5889 5889 5890 5891 5892 5892 5894 5897 5897 5899 5902 5904 5904 5903 5903 5905 5907 5909 5911 5912 5913 5914 5915 5915 5916 5917 5918 5919 5919 5919 5918 5919 5919 5920 5921 5921 5922 5923 5924 5924 5925 5926 5927 5928 5928 5929 5929 5929 5930 5930 5930 5930 5930 5929 5929
5840 5841 5841 5843 5845 5847 5848 5849 5850 5853 5855 5859 5862 5864 5866 5868 5871 5872 5874 5876 5872 5869 5874 5879 5879 5878 5877 5877 5879 5882 5884 5886 5887 5888 5890 5891 5891 5892 5894 5895 5897 5899 5902 5903 5902 5902 5903 5905 5907 5908 5910 5910 5911 5912 5913 5914 5915 5916 5917 5918 5918 5917 5917 5918 5918 5919 5920 5921 5921 5922 5923 5924 5925 5926 5926 5927 5927 5928 5928 5928 5929 5928 5928 5928 5928 5928
5836 5837 5839 5840 5841 5843 5845 5845 5847 5849 5851 5853 5857 5859 5861 5863 5865 5865 5866 5868 5866 5867 5872 5877 5878 5876 5873 5875 5877 5878 5881 5882 5884 5886 5888 5889 5890 5891 5892 5893 5895 5897 5899 5900 5901 5901 5901 5902 5904 5905 5907 5907 5908 5909 5910 5911 5912 5914 5915 5916 5916 5916 5916 5916 5917 5917 5918 5919 5920 5920 5921 5922 5923 5924 5925 5925 5926 5926 5926 5927 5927 5927 5927 5927 5927 5927
5830 5833 5834 5834 5837 5839 5841 5842 5844 5845 5846 5848 5851 5853 5855 5857 5859 5859 5861 5862 5862 5865 5870 5874 5875 5872 5871 5874 5875 5876 5879 5881 5882 5883 5884 5885 5886 5887 5889 5890 5892 5894 5896 5897 5898 5898 5899 5900 5902 5903 5904 5905 5906 5906 5907 5909 5910 5911 5912 5914 5915 5915 5915 5915 5915 5916 5916 5917 5918 5919 5920 5921 5922 5922 5923 5923 5924 5924 5924 5925 5925 5925 5925 5925 5925 5926
5825 5827 5830 5831 5833 5836 5838 5840 5842 5843 5844 5844 5848 5850 5850 5852 5854 5854 5857 5858 5860 5863 5867 5869 5869 5867 5869 5872 5875 5876 5877 5879 5880 5879 5880 5881 5882 5884 5885 5886 5889 5891 5893 5895 5895 5896 5897 5899 5899 5900 5901 5902 5903 5904 5905 5906 5907 5908 5910 5911 5912 5912 5912 5913 5913 5914 5914 5915 5916 5917 5918 5919 5920 5920 5921 5921 5922 5922 5923 5923 5923 5923 5923 5923 5924 5924
5821 5823 5828 5831 5831 5832 5834 5837 5840 5840 5840 5842 5845 5846 5846 5848 5851 5852 5854 5856 5860 5862 5862 5864 5863 5864 5869 5871 5873 5875 5875 5876 5877 5876 5877 5877 5879 5881 5882 5884 5887 5888 5890 5892 5893 5894 5895 5896 5897 5898 5899 5900 5900 5901 5902 5904 5905 5906 5907 5907 5909 5909 5910 5910 5911 5911 5912 5913 5914 5915 5916 5916 5917 5918 5919 5919 5920 5920 5921 5921 5921 5921 5921 5921 5922 5922
5817 5820 5825 5827 5828 5828 5830 5833 5836 5836 5836 5839 5840 5840 5843 5847 5848 5849 5851 5854 5857 5857 5857 5859 5860 5863 5867 5867 5870 5873 5873 5873 5874 5873 5874 5875 5876 5878 5880 5883 5885 5886 5887 5888 5889 5891 5892 5894 5894 5895 5897 5897 5898 5899 5900 5901 5902 5903 5904 5905 5906 5907 5908 5908 5908 5909 5910 5910 5912 5912 5913 5914 5915 5916 5916 5917 5918 5918 5919 5919 5919 5919 5919 5919 5920 5921
5814 5816 5820 5822 5823 5825 5827 5829 5831 5832 5833 5834 5835 5838 5843 5844 5844 5846 5848 5850 5852 5851 5851 5855 5857 5861 5863 5863 5867 5871 5870 5870 5872 5872 5873 5873 5873 5875 5877 5880 5882 5883 5883 5884 5886 5888 5889 5891 5892 5893 5894 5895 5896 5897 5898 5899 5900 5901 5902 5902 5903 5904 5905 5905 5905 5906 5907 5908 5909 5910 5911 5911 5912 5913 5914 5914 5915 5916 5917 5916 5917 5917 5917 5917 5918 5918
5810 5811 5814 5816 5818 5821 5824 5824 5824 5826 5829 5831 5833 5837 5839 5839 5839 5841 5843 5844 5846 5846 5847 5851 5853 5856 5859 5860 5865 5868 5866 5867 5869 5870 5871 5871 5871 5872 5875 5877 5878 5879 5880 5882 5883 5885 5886 5888 5890 5891 5892 5893 5894 5895 5896 5897 5897 5898 5899 5900 5900 5901 5902 5902 5903 5904 5905 5906 5907 5907 5908 5909 5910 5911 5911 5912 5913 5914 5914 5914 5915 5915 5916 5916 5916 5916
5806 5806 5809 5811 5813 5816 5818 5817 5817 5820 5825 5829 5831 5831 5832 5834 5835 5837 5838 5839 5841 5842 5844 5847 5848 5849 5853 5858 5862 5865 5865 5865 5867 5868 5869 5869 5869 5870 5872 5876 5877 5876 5878 5880 5881 5882 5884 5886 5888 5889 5890 5891 5892 5893 5894 5895 5895 5896 5897 5897 5898 5898 5899 5900 5901 5901 5902 5903 5904 5905 5906 5907 5907 5908 5909 5910 5911 5911 5912 5912 5912 5913 5914 5914 5914 5914
5801 5801 5804 5808 5810 5810 5808 5809 5812 5816 5821 5825 5826 5826 5826 5828 5830 5832 5834 5835 5837 5839 5840 5842 5842 5843 5850 5856 5860 5863 5864 5864 5865 5867 5868 5867 5867 5867 5869 5874 5876 5876 5877 5879 5880 5881 5882 5884 5886 5887 5888 5889 5890 5891 5892 5893 5893 5894 5894 5895 5896 5896 5896 5897 5898 5899 5900 5901 5902 5903 5903 5904 5905 5906 5907 5908 5909 5909 5910 5910 5910 5911 5912 5913 5913 5912
5795 5795 5798 5803 5804 5803 5803 5805 5808 5812 5817 5820 5822 5823 5824 5824 5826 5827 5828 5829 5831 5833 5835 5838 5837 5839 5847 5854 5856 5860 5863 5863 5863 5865 5864 5864 5864 5864 5866 5870 5873 5875 5877 5877 5878 5879 5880 5881 5883 5884 5885 5887 5888 5889 5890 5891 5892 5892 5892 5893 5893 5894 5894 5895 5896 5897 5898 5899 5900 5901 5901 5902 5903 5904 5905 5906 5907 5907 5908 5908 5908 5909 5910 5911 5911 5911
5792 5792 5792 5796 5799 5800 5802 5804 5804 5806 5811 5815 5817 5820 5821 5820 5820 5822 5823 5825 5827 5829 5831 5834 5833 5834 5842 5851 5854 5858 5861 5860 5860 5861 5861 5861 5862 5862 5862 5864 5868 5871 5874 5875 5875 5876 5877 5879 5881 5882 5883 5884 5886 5887 5888 5888 5890 5890 5891 5891 5891 5892 5892 5892 5893 5894 5896 5897 5898 5899 5899 5900 5901 5902 5903 5904 5905 5905 5906 5906 5906 5907 5908 5908 5909 5909
5783 5787 5787 5789 5795 5798 5801 5802 5802 5802 5804 5806 5809 5813 5816 5815 5816 5819 5822 5825 5826 5826 5829 5830 5829 5830 5838 5847 5852 5854 5856 5855 5855 5857 5857 5858 5859 5859 5859 5860 5861 5864 5869 5871 5872 5872 5874 5876 5878 5880 5881 5882 5883 5885 5886 5887 5887 5888 5888 5889 5889 5890 5890 5890 5891 5892 5893 5895 5896 5897 5898 5898 5899 5899 5900 5901 5902 5903 5903 5904 5904 5905 5906 5906 5907 5907
5773 5778 5782 5783 5787 5791 5793 5795 5796 5796 5795 5797 5801 5806 5810 5813 5815 5817 5819 5822 5822 5823 5826 5826 5825 5828 5834 5842 5848 5851 5851 5851 5852 5852 5854 5855 5856 5857 5857 5857 5857 5859 5862 5865 5867 5869 5870 5872 5874 5876 5878 5879 5880 5882 5884 5885 5885 5886 5886 5887 5887 5888 5888 5888 5889 5890 5891 5892 5893 5895 5896 5896 5897 5898 5898 5899 5900 5900 5901 5901 5902 5903 5904 5904 5905 5905
5767 5769 5774 5776 5776 5779 5782 5784 5788 5790 5791 5792 5795 5800 5806 5810 5812 5813 5815 5816 5816 5818 5822 5822 5822 5826 5830 5835 5842 5847 5848 5848 5848 5848 5850 5852 5853 5854 5855 5854 5854 5855 5857 5860 5863 5865 5867 5868 5870 5872 5874 5876 5878 5880 5881 5882 5883 5883 5884 5885 5885 5885 5886 5886 5886 5888 5889 5890 5891 5892 5893 5894 5895 5895 5896 5897 5897 5898 5899 5899 5900 5900 5901 5902 5903 5903
5763 5762 5764 5767 5770 5774 5778 5783 5787 5790 5790 5790 5791 5794 5800 5805 5808 5810 5810 5810 5811 5814 5817 5818 5821 5825 5828 5831 5836 5842 5845 5846 5847 5847 5847 5848 5849 5850 5852 5852 5852 5852 5854 5856 5859 5861 5863 5864 5866 5868 5870 5873 5875 5877 5878 5880 5881 5881 5882 5882 5883 5883 5884 5884 5884 5885 5886 5887 5888 5889 5890 5891 5892 5893 5893 5894 5895 5895 5896 5897 5898 5898 5899 5900 5900 5901
5758 5756 5755 5760 5765 5770 5776 5781 5786 5788 5788 5788 5789 5790 5794 5799 5803 5804 5804 5805 5809 5811 5811 5815 5819 5821 5825 5829 5832 5837 5841 5844 5845 5846 5845 5846 5846 5846 5848 5850 5850 5850 5851 5853 5856 5857 5859 5861 5862 5864 5866 5868 5870 5873 5875 5877 5878 5878 5879 5880 5880 5881 5881 5882 5882 5883 5884 5885 5886 5887 5888 5888 5889 5890 5890 5891 5892 5893 5894 5895 5895 5896 5896 5897 5897 5898
5752 5751 5752 5754 5758 5764 5769 5774 5779 5784 5786 5786 5787 5787 5789 5792 5796 5798 5799 5802 5806 5807 5807 5812 5817 5818 5821 5826 5829 5833 5837 5841 5843 5844 5843 5843 5844 5844 5845 5846 5847 5848 5849 5850 5852 5854 5856 5858 5860 5861 5862 5864 5866 5868 5870 5873 5875 5876 5876 5877 5877 5878 5879 5879 5880 5881 5882 5882 5883 5884 5885 5885 5886 5887 5887 5888 5889 5890 5891 5892 5893 5894 5894 5894 5894 5895
5746 5747 5750 5751 5753 5757 5762 5766 5771 5776 5780 5782 5783 5785 5786 5787 5789 5793 5796 5799 5801 5802 5805 5810 5813 5814 5816 5821 5825 5829 5832 5836 5839 5840 5839 5841 5842 5842 5842 5843 5844 5846 5847 5848 5850 5852 5854 5856 5858 5859 5860 5860 5862 5864 5866 5869 5872 5873 5874 5874 5874 5875 5876 5876 5877 5878 5879 5880 5881 5881 5882 5882 5883 5884 5885 5885 5886 5887 5888 5889 5890 5891 5892 5892 5892 5891
5740 5742 5745 5749 5750 5752 5756 5761 5765 5768 5772 5776 5779 5781 5783 5784 5785 5788 5792 5796 5797 5798 5801 5805 5807 5808 5811 5816 5821 5824 5827 5829 5832 5834 5836 5837 5838 5838 5839 5840 5842 5844 5845 5847 5848 5850 5852 5854 5855 5856 5856 5857 5858 5860 5862 5865 5868 5870 5871 5871 5872 5872 5873 5873 5874 5875 5876 5877 5878 5878 5879 5879 5880 5881 5882 5883 5883 5884 5885 5886 5887 5888 5888 5889 5888 5888
5732 5736 5739 5743 5745 5746 5750 5755 5759 5763 5767 5769 5771 5774 5778 5782 5784 5785 5787 5790 5793 5795 5797 5799 5800 5803 5807 5812 5816 5819 5821 5824 5827 5830 5832 5832 5831 5832 5834 5836 5838 5841 5843 5844 5846 5847 5849 5850 5852 5852 5853 5854 5856 5857 5859 5861 5863 5865 5867 5868 5869 5869 5869 5870 5871 5871 5872 5874 5874 5874 5875 5876 5877 5878 5879 5879 5880 5881 5882 5882 5883 5884 5884 5885 5885 5885
5722 5728 5732 5735 5737 5740 5745 5750 5754 5760 5761 5758 5760 5766 5772 5778 5781 5784 5785 5786 5788 5792 5794 5796 5797 5800 5804 5808 5810 5813 5816 5819 5822 5824 5827 5828 5828 5827 5829 5832 5834 5836 5838 5840 5841 5843 5844 5846 5848 5848 5849 5851 5852 5853 5854 5856 5858 5860 5863 5865 5865 5866 5866 5867 5868 5868 5869 5870 5870 5871 5872 5873 5874 5874 5875 5876 5877 5877 5878 5879 5879 5880 5880 5881 5881 5881
5713 5720 5724 5728 5732 5736 5741 5745 5749 5751 5750 5749 5756 5765 5769 5771 5775 5780 5782 5784 5787 5789 5791 5793 5795 5797 5800 5801 5803 5805 5809 5813 5817 5820 5822 5824 5825 5825 5826 5828 5830 5832 5833 5834 5836 5837 5839 5841 5842 5843 5844 5845 5847 5849 5849 5851 5853 5856 5858 5859 5861 5862 5863 5864 5864 5865 5865 5865 5866 5867 5868 5869 5870 5871 5871 5872 5873 5874 5875 5875 5875 5876 5876 5877 5877 5877
5706 5713 5716 5720 5726 5730 5736 5740 5741 5741 5742 5746 5755 5763 5765 5767 5771 5774 5777 5781 5784 5786 5787 5788 5790 5791 5793 5794 5795 5797 5801 5805 5810 5815 5817 5819 5820 5821 5823 5824 5825 5827 5827 5828 5830 5832 5834 5835 5836 5837 5839 5840 5843 5844 5845 5846 5849 5851 5852 5854 5856 5857 5859 5860 5860 5861 5862 5862 5862 5863 5864 5865 5866 5867 5867 5868 5869 5870 5871 5872 5872 5872 5873 5873 5873 5873
5699 5706 5710 5714 5718 5723 5728 5732 5733 5735 5739 5743 5750 5756 5759 5763 5766 5769 5772 5776 5778 5779 5781 5782 5783 5784 5786 5788 5791 5793 5796 5798 5801 5805 5809 5812 5814 5815 5817 5819 5821 5822 5823 5824 5824 5826 5827 5829 5831 5833 5835 5836 5838 5840 5841 5842 5844 5846 5847 5849 5851 5853 5854 5855 5856 5857 5858 5858 5858 5859 5859 5860 5861 5862 5863 5864 5866 5867 5868 5868 5868 5869 5869 5869 5869 5869
5691 5697 5703 5707 5711 5715 5720 5725 5728 5732 5735 5739 5746 5751 5753 5755 5758 5762 5767 5769 5770 5772 5775 5776 5776 5778 5781 5784 5787 5790 5792 5794 5797 5799 5802 5805 5808 5809 5811 5813 5815 5817 5818 5819 5819 5820 5821 5823 5826 5828 5830 5832 5833 5835 5837 5838 5839 5840 5842 5844 5846 5848 5849 5850 5851 5852 5853 5854 5855 5855 5855 5856 5857 5858 5859 5861 5862 5863 5864 5865 5865 5865 5865 5865 5865 5864
5687 5691 5696 5701 5706 5710 5716 5721 5724 5726 5729 5734 5741 5745 5746 5749 5752 5756 5760 5762 5762 5766 5769 5769 5771 5774 5776 5779 5782 5784 5787 5790 5793 5796 5797 5799 5801 5802 5803 5806 5809 5812 5813 5814 5814 5815 5815 5816 5818 5821 5823 5826 5828 5830 5832 5833 5834 5835 5836 5838 5840 5842 5843 5845 5846 5848 5849 5850 5851 5851 5852 5852 5853 5855 5856 5858 5859 5860 5860 5861 5861 5861 5861 5861 5861 5860
5685 5687 5690 5695 5701 5706 5710 5714 5717 5719 5723 5730 5736 5739 5741 5744 5747 5751 5755 5756 5758 5761 5763 5764 5767 5770 5773 5775 5777 5779 5782 5785 5786 5788 5790 5791 5793 5794 5796 5798 5802 5805 5807 5808 5808 5810 5810 5810 5810 5812 5815 5820 5823 5825 5826 5827 5828 5830 5831 5833 5835 5836 5838 5839 5842 5843 5845 5846 5847 5847 5848 5849 5850 5851 5853 5854 5855 5856 5856 5857 5857 5857 5857 5857 5857 5856
5678 5680 5684 5689 5695 5699 5704 5707 5711 5716 5720 5725 5730 5734 5737 5739 5743 5747 5749 5749 5752 5756 5758 5760 5763 5766 5769 5771 5773 5774 5777 5779 5780 5781 5784 5786 5787 5789 5791 5792 5793 5796 5798 5800 5801 5803 5804 5804 5804 5805 5807 5813 5818 5820 5820 5821 5822 5823 5826 5828 5828 5829 5832 5834 5837 5839 5840 5841 5843 5844 5845 5846 5847 5848 5849 5851 5851 5852 5852 5853 5853 5854 5854 5854 5854 5853
5670 5673 5677 5682 5688 5694 5699 5703 5708 5712 5714 5719 5725 5728 5730 5734 5738 5740 5741 5743 5746 5750 5753 5756 5760 5762 5765 5767 5769 5770 5771 5772 5774 5777 5780 5782 5783 5785 5786 5786 5787 5789 5791 5792 5793 5795 5796 5797 5799 5800 5801 5805 5810 5813 5813 5815 5817 5818 5819 5820 5821 5823 5826 5828 5830 5833 5835 5837 5838 5840 5841 5842 5843 5844 5846 5846 5847 5848 5849 5849 5850 5850 5850 5850 5850 5849
5661 5665 5670 5677 5683 5689 5695 5700 5703 5707 5709 5714 5720 5722 5724 5729 5732 5734 5735 5737 5739 5744 5748 5752 5756 5758 5760 5762 5764 5766 5767 5767 5770 5772 5775 5778 5779 5779 5780 5780 5781 5783 5784 5786 5787 5788 5789 5792 5794 5795 5797 5798 5800 5802 5804 5806 5809 5811 5812 5813 5815 5818 5819 5821 5823 5826 5829 5831 5833 5835 5837 5838 5839 5840 5841 5842 5843 5844 5845 5846 5846 5846 5846 5845 5845 5844
5654 5659 5667 5673 5679 5685 5691 5695 5698 5702 5706 5710 5714 5716 5719 5723 5725 5726 5729 5731 5735 5739 5742 5747 5751 5754 5755 5757 5760 5762 5763 5764 5765 5767 5770 5772 5774 5775 5774 5774 5775 5777 5778 5780 5782 5783 5784 5787 5788 5788 5789 5789 5790 5791 5793 5795 5798 5800 5803 5805 5808 5810 5811 5813 5817 5820 5823 5826 5828 5830 5832 5833 5834 5836 5837 5838 5839 5840 5841 5841 5842 5841 5841 5840 5840 5839
5652 5658 5663 5668 5674 5680 5685 5688 5691 5697 5702 5705 5709 5711 5714 5717 5717 5719 5723 5727 5730 5733 5737 5742 5747 5749 5750 5753 5755 5757 5758 5759 5760 5761 5764 5766 5769 5770 5769 5768 5770 5772 5773 5775 5777 5779 5779 5780 5781 5781 5780 5781 5781 5781 5781 5783 5788 5792 5794 5796 5799 5801 5804 5807 5810 5813 5816 5819 5822 5825 5827 5828 5829 5831 5831 5833 5835 5836 5836 5837 5837 5837 5836 5836 5834 5833
5650 5654 5659 5664 5669 5674 5679 5682 5686 5692 5697 5699 5701 5703 5705 5708 5709 5712 5718 5724 5726 5729 5734 5738 5741 5744 5746 5748 5749 5751 5752 5753 5754 5756 5758 5760 5763 5764 5764 5764 5764 5766 5768 5769 5771 5773 5774 5775 5775 5775 5775 5775 5775 5776 5775 5775 5778 5782 5784 5787 5790 5793 5797 5800 5803 5806 5810 5813 5816 5820 5822 5823 5824 5825 5826 5828 5830 5830 5831 5832 5832 5832 5832 5830 5828 5828
5647 5651 5657 5663 5667 5670 5676 5680 5683 5688 5692 5692 5693 5695 5698 5701 5703 5707 5714 5720 5723 5726 5730 5733 5736 5739 5741 5742 5743 5745 5746 5747 5749 5751 5752 5754 5756 5758 5759 5759 5759 5760 5762 5763 5765 5767 5769 5769 5768 5769 5769 5769 5771 5772 5772 5771 5771 5773 5775 5777 5781 5786 5789 5793 5797 5800 5803 5808 5812 5815 5816 5817 5818 5819 5821 5822 5824 5825 5826 5826 5827 5827 5826 5825 5824 5824
5645 5649 5655 5660 5664 5668 5674 5678 5681 5684 5687 5688 5690 5694 5698 5700 5701 5705 5711 5716 5718 5722 5725 5728 5731 5733 5735 5736 5738 5739 5741 5742 5744 5746 5747 5748 5750 5751 5752 5753 5754 5755 5756 5757 5759 5762 5762 5762 5761 5761 5762 5763 5763 5762 5762 5763 5765 5767 5769 5770 5772 5777 5782 5786 5789 5793 5797 5802 5806 5808 5809 5810 5812 5813 5815 5817 5818 5820 5821 5821 5821 5821 5821 5821 5821 5820
5642 5647 5653 5658 5662 5666 5672 5675 5677 5680 5682 5684 5687 5692 5696 5697 5699 5704 5709 5713 5715 5717 5720 5723 5726 5727 5729 5732 5733 5735 5736 5738 5739 5740 5741 5742 5743 5745 5745 5746 5747 5749 5750 5752 5755 5756 5757 5756 5755 5754 5756 5757 5755 5754 5756 5757 5757 5759 5762 5763 5763 5767 5773 5778 5782 5786 5791 5795 5798 5800 5802 5804 5806 5808 5810 5812 5813 5814 5815 5815 5815 5815 5815 5816 5816 5815
5641 5646 5651 5656 5660 5664 5668 5671 5673 5675 5678 5679 5683 5687 5691 5693 5697 5701 5706 5709 5711 5713 5715 5718 5720 5722 5725 5727 5728 5730 5731 5733 5734 5735 5735 5736 5737 5738 5738 5739 5740 5743 5745 5747 5749 5751 5751 5751 5750 5749 5751 5750 5749 5749 5751 5751 5751 5752 5754 5755 5756 5759 5764 5769 5772 5777 5782 5787 5790 5793 5796 5798 5800 5803 5804 5806 5807 5808 5808 5809 5809 5809 5809 5810 5810 5810
5639 5643 5648 5653 5657 5660 5664 5667 5669 5670 5673 5675 5679 5683 5685 5688 5692 5697 5700 5703 5706 5708 5711 5714 5716 5718 5720 5722 5723 5725 5726 5727 5729 5729 5730 5731 5732 5732 5732 5733 5734 5737 5740 5742 5743 5744 5745 5745 5745 5744 5744 5742 5742 5742 5742 5743 5747 5749 5749 5750 5751 5754 5758 5761 5762 5767 5775 5781 5784 5787 5790 5792 5795 5796 5798 5799 5800 5801 5801 5802 5802 5803 5803 5804 5803 5803
5636 5640 5644 5649 5653 5657 5661 5664 5664 5666 5670 5674 5677 5679 5681 5683 5688 5692 5695 5698 5701 5704 5707 5710 5712 5714 5716 5717 5718 5720 5721 5722 5723 5724 5725 5726 5727 5727 5728 5729 5730 5732 5735 5736 5737 5738 5739 5740 5739 5737 5735 5733 5733 5733 5734 5737 5743 5747 5746 5746 5747 5750 5754 5757 5758 5763 5770 5775 5778 5781 5784 5787 5789 5790 5791 5792 5793 5794 5795 5795 5796 5796 5797 5797 5797 5797